COSMOS 1275 DEB

Satellite information

Favourite Embed

Satellite Type and Status

DEBRISIN ORBIT

Key statistics

Satellite COSMOS 1275 DEB at a glance.

Uptime

16042

Days in orbit

Revolutions

≈ 14.1

Per day

Orbit

LEO

Low Earth Orbit

Inclination

82.8

Latest

Satellite identification and parameters

Extended collection of information and parameters for COSMOS 1275 DEB.

Object identification

Identified? True

Debris? True

Object name: COSMOS 1275 DEB

International designator: 1981-053HR

Object number (NORAD): 14358

Object ID (CCSDS): 14358

Country: COMMONWEALTH OF INDEPENDENT STATES (CIS)

Current information (Y/N): Y

RCS size: SMALL

Orbital parameters

Period: 102.23 minutes

Inclination: 82.8039 deg

SMA: 7242.358 km

Apoapsis: 988.564 km

Periapsis: 739.882 km

RAAN: 281.636 deg

Eccentricy: 0.0171686

Argument of periapsis: 170.3611 deg

Mean anomaly: 313.0089 deg

Mean motion: 14.08584188 rev/day

Mean motion (dot): 0.0000623 rev/day2

B* drag term: 0.0031573 1/REarth

Two-line elements (TLE)

Creation date: May 6, 2025, 3:54 a.m.

Reference frame: TEME

Reference center: EARTH

Epoch: May 5, 2025, 8:33 p.m. UTC

TLE line 0: 0 COSMOS 1275 DEB

TLE line 1: 1 14358U 81053HR 25125.85678201 .00006230 00000-0 31573-2 0 9992

TLE line 2: 2 14358 82.8039 281.6360 0171686 170.3611 313.0089 14.08584188125578

Live tracking on map

Real-time ground track for satellite COSMOS 1275 DEB.

In-orbit conjunctions

A list of the most updated potential collisions computed for object COSMOS 1275 DEB.

Target Orbit TCA Probability of collision Miss distance Type
IRS B3 SSO 2025-03-13 00:40:25 0.000253593 986.0 (m) PAYLOAD

Associated space launch

Navigation satellite providing location information for the Tsiklon-B navigation system

COSMOS 1275 DEB was lifted into orbit during the mission ‘Kosmos-3M | Parus 27’, on board a Kosmos-3M space rocket.

The launch took place on June 4, 1981, 3:41 p.m. from 132/2.

For more information about the launch, click the button.

Launch to space Kosmos-3M | Parus 27
Kosmos-3M | Parus 27

Agency: N/A

Status: Launch Successful

Launch date: June 4, 1981, 3:41 p.m. UTC

Rocket: Kosmos-3M

Launch pad: 132/2

Location: Plesetsk Cosmodrome, Russian Federation

...

Latest news about this satellite

There are no fresh news available about this satellite. Check back as we update our databases every day.


Newsletter sign-up

Weekly statistics, charts and insights to help you stay on top of the space industry.